Toluca Jose Maria, Mexico

10:48 AM CDT on October 17, 2017 (GMT -0500)
Lic Adolfo Lopez Mateos International

Weather History for MMTO - April, 2013

Change the Weather History Date:

Wednesday, April 10, 2013

  Actual Average Record
Temperature  
Mean Temperature 60 °F -  
Max Temperature 78 °F 73 °F 84 °F (2015)
Min Temperature 42 °F 40 °F 33 °F (2007)
Degree Days  
Heating Degree Days 5    
Growing Degree Days 10 (Base 50)    
Moisture  
Dew Point 23 °F    
Average Humidity 30    
Maximum Humidity 57    
Minimum Humidity 9    
Precipitation  
Precipitation 0.00 in - - ()
Sea Level Pressure  
Sea Level Pressure 30.07 in    
Wind  
Wind Speed 4 mph ()    
Max Wind Speed 21 mph    
Max Gust Speed -    
Visibility 6.4 miles    
Events      
Averages and records for this station are not official NWS values.
T = Trace of Precipitation, MM = Missing Value Source: Averaged Metar Reports

Daily Weather History Graph

Daily Weather History Graph

Search for Another Location

Airport or City:

Trip Planner

Search our weather history database for the weather conditions in past years. The results will help you decide how hot, cold, wet, or windy it might be!

Date:

Astronomy

Apr. 10, 2013 Rise Set
Actual Time 7:24 AM CDT 7:54 PM CDT
Civil Twilight 7:02 AM CDT 8:16 PM CDT
Nautical Twilight 6:36 AM CDT 8:43 PM CDT
Astronomical Twilight 6:10 AM CDT 9:09 PM CDT
Moon 7:26 AM CDT (4/10) 8:23 PM CDT (4/10)
Length of Visible Light 13h 14m
Length of Day
12h 30m
New Moon, 0% of the Moon is Illuminated
Apr 10
New Moon
Apr 18
First Quarter
Apr 25
Full
May 2
Last Quarter
May 9
New

Hourly Weather History & Observations

Time (CDT) Temp. Windchill Dew Point Humidity Pressure Visibility Wind Dir Wind Speed Gust Speed Precip Events Conditions
12:45 AM 53.6 °F - 26.6 °F 35% 29.71 in 5.0 mi North 5.8 mph - N/A   Scattered Clouds
1:45 AM 51.8 °F - 28.4 °F 41% 30.31 in 5.0 mi Calm Calm - N/A   Scattered Clouds
2:45 AM 48.2 °F - 28.4 °F 46% 30.30 in 5.0 mi Calm Calm - N/A   Scattered Clouds
3:45 AM 46.4 °F - 28.4 °F 50% 29.70 in 4.0 mi Calm Calm - N/A   Scattered Clouds
4:45 AM 46.4 °F - 28.4 °F 50% 30.27 in - Calm Calm - N/A   Scattered Clouds
5:45 AM 44.6 °F - 30.2 °F 57% 30.28 in 3.0 mi Calm Calm - N/A   Scattered Clouds
6:45 AM 44.6 °F 43.1 °F 30.2 °F 57% 29.75 in 3.0 mi SE 3.5 mph - N/A   Mostly Cloudy
7:47 AM 42.8 °F - 28.4 °F 57% 30.29 in 5.0 mi Calm Calm - N/A   Mostly Cloudy
8:46 AM 48.2 °F - 32.0 °F 54% 30.31 in 7.0 mi Calm Calm - N/A   Mostly Cloudy
9:44 AM 57.2 °F - 30.2 °F 36% 29.74 in 7.0 mi Calm Calm - N/A   Mostly Cloudy
10:45 AM 64.4 °F - 26.6 °F 24% 30.32 in 7.0 mi NNW 4.6 mph - N/A   Mostly Cloudy
11:46 AM 68.0 °F - 15.8 °F 13% 30.31 in 7.0 mi West 4.6 mph - N/A   Mostly Cloudy
12:45 PM 71.6 °F - 14.0 °F 11% 29.65 in 7.0 mi NNW 9.2 mph - N/A   Mostly Cloudy
1:44 PM 73.4 °F - 14.0 °F 10% 30.27 in 7.0 mi Calm Calm - N/A   Mostly Cloudy
2:45 PM 73.4 °F - 12.2 °F 10% 30.23 in 7.0 mi SSE 4.6 mph - N/A   Mostly Cloudy
3:45 PM 77.0 °F - 23.0 °F 13% 29.58 in 7.0 mi East 9.2 mph - N/A   Mostly Cloudy
4:43 PM 78.8 °F - 17.6 °F 10% 30.18 in 7.0 mi SE 13.8 mph - N/A   Mostly Cloudy
5:45 PM 77.0 °F - 14.0 °F 9% 30.17 in 7.0 mi SW 12.7 mph - N/A   Mostly Cloudy
6:45 PM 71.6 °F - 14.0 °F 11% 29.65 in 8.0 mi WSW 20.7 mph - N/A   Mostly Cloudy
7:45 PM 68.0 °F - 12.2 °F 12% 30.21 in 8.0 mi West 19.6 mph - N/A   Mostly Cloudy
8:45 PM 64.4 °F - 17.6 °F 16% 30.25 in 8.0 mi West 6.9 mph - N/A   Scattered Clouds
9:45 PM 59.0 °F - 23.0 °F 25% 29.73 in 8.0 mi WNW 10.4 mph - N/A   Scattered Clouds
10:45 PM 59.0 °F - 24.8 °F 27% 30.27 in 8.0 mi West 8.1 mph - N/A   Scattered Clouds
11:45 PM 53.6 °F - 28.4 °F 38% 30.28 in 8.0 mi NNW 6.9 mph - N/A   Scattered Clouds